{"data":{"norad_id":67688,"epoch":"2026-09-19T11:34:15.247488Z","epoch_age_seconds":102302,"freshness":"FRESH","line1":"1 67688U 98067YE  26262.48212092  .00135849  00000+0  73260-3 0  9991","line2":"2 67688  51.6246 171.4040 0007936 160.9140 199.2160 15.79194602 35037","mean_motion":15.79194602,"eccentricity":0.0007936,"inclination_deg":51.6246,"raan_deg":171.404,"arg_perigee_deg":160.914,"mean_anomaly_deg":199.216,"bstar":0.0007326,"rev_number":3503,"period_min":91.185722024144,"perigee_km":327.39564525389,"apogee_km":338.04711967854,"semimajor_km":6710.8583824662,"source":"CELESTRAK","updated_at":"2026-09-20T09:00:28.695954Z"}}